This is the latest recevied weather packets stored in our database for station/object AI5BL. If no packets are shown the sender has not sent any weather packets the latest 10 day(s).
| Time | Temp. | Humidity | Pressure | Rain* | Wind** | Luminosity | Snow |
|---|---|---|---|---|---|---|---|
| 1788138365 | 28.33° C | 76% | 1018.8 hPa | 0 mm | - | 0 W/m² | - |
| 1788138060 | 28.33° C | 76% | 1018.9 hPa | 0 mm | - | 0 W/m² | - |
| 1788137759 | 28.89° C | 76% | 1018.8 hPa | 0 mm | - | 0 W/m² | - |
| 1788137454 | 28.89° C | 74% | 1018.6 hPa | 0 mm | - | 0 W/m² | - |
| 1788137150 | 28.89° C | 73% | 1018.3 hPa | 0 mm | - | 0 W/m² | - |
| 1788136861 | 29.44° C | 71% | 1018.5 hPa | 0 mm | - | 0 W/m² | - |
| 1788136542 | 29.44° C | 69% | 1018.3 hPa | 0 mm | - | 0 W/m² | - |
| 1788136238 | 29.44° C | 70% | 1018.2 hPa | 0 mm | - | 1 W/m² | - |
| 1788135936 | 30° C | 69% | 1018.1 hPa | 0 mm | - | 2 W/m² | - |
| 1788135631 | 30° C | 70% | 1018.1 hPa | 0 mm | - | 4 W/m² | - |
| 1788135327 | 30° C | 68% | 1018.2 hPa | 0 mm | - | 6 W/m² | - |
| 1788135024 | 30.56° C | 69% | 1018.3 hPa | 0 mm | - | 11 W/m² | - |
| 1788134720 | 30.56° C | 67% | 1018.2 hPa | 0 mm | - | 18 W/m² | - |
| 1788134419 | 30.56° C | 65% | 1018.1 hPa | 0 mm | - | 20 W/m² | - |
| 1788134118 | 30.56° C | 64% | 1018.2 hPa | 0 mm | - | 23 W/m² | - |
| 1788133813 | 30.56° C | 69% | 1018.2 hPa | 0 mm | - | 24 W/m² | - |
| 1788133508 | 30.56° C | 63% | 1018.2 hPa | 0 mm | - | 27 W/m² | - |
| 1788133203 | 30.56° C | 68% | 1018 hPa | 0 mm | - | 35 W/m² | - |
| 1788132899 | 31.11° C | 63% | 1017.9 hPa | 0 mm | - | 34 W/m² | - |
| 1788132594 | 31.11° C | 63% | 1018 hPa | 0 mm | - | 36 W/m² | - |
| 1788132290 | 31.67° C | 62% | 1018 hPa | 0 mm | - | 51 W/m² | - |
| 1788131981 | 31.67° C | 62% | 1017.9 hPa | 0 mm | - | 66 W/m² | - |
| 1788131676 | 31.67° C | 59% | 1018 hPa | 0 mm | - | 76 W/m² | - |
| 1788131375 | 31.67° C | 62% | 1018.1 hPa | 0 mm | - | 67 W/m² | - |
| 1788131071 | 31.67° C | 59% | 1018.1 hPa | 0 mm | - | 75 W/m² | - |
* Rain latest hour (hover to see other rain measurements)
** Current wind speed in m/s (hover to see current wind gust speed)